Location: Peebles
(55.6412°N, 3.1714°W)
Time: 05:44:01
(UTC+00:00)

CZ-4 R/B - Visible Passes

Search period start: 27 January 2022 00:00
Search period end: 06 February 2022 00:00
Orbit: 531 x 594 km, 97.7° (Epoch: 26 January)

Date Brightness Start Highest point End Pass type
(mag) Time Alt. Az. Time Alt. Az. Time Alt. Az.
27 Jan 4.7 06:44:16 10° NE 06:46:24 14° E 06:48:32 10° ESE visible
27 Jan 2.5 17:37:48 10° ESE 17:40:55 23° ENE 17:44:06 10° N visible
27 Jan 2.0 19:11:44 10° S 19:15:37 55° W 19:19:36 10° NNW visible
28 Jan 4.7 06:43:56 10° NE 06:46:03 14° E 06:48:10 10° ESE visible
28 Jan 2.5 17:37:27 10° ESE 17:40:34 23° ENE 17:43:46 10° N visible
28 Jan 2.0 19:11:22 10° S 19:15:16 56° W 19:19:16 10° NNW visible
29 Jan 4.7 06:43:36 10° NE 06:45:42 13° E 06:47:48 10° ESE visible
29 Jan 2.5 17:37:06 10° ESE 17:40:14 22° ENE 17:43:25 10° N visible
29 Jan 2.0 19:11:01 10° S 19:14:54 56° WSW 19:18:56 10° NNW visible
30 Jan 4.7 06:43:16 10° NE 06:45:21 13° E 06:47:26 10° ESE visible
30 Jan 2.5 17:36:45 10° ESE 17:39:53 22° ENE 17:43:05 10° N visible
30 Jan 2.0 19:10:39 10° S 19:14:34 57° W 19:18:35 10° NNW visible
31 Jan 4.7 06:42:56 10° NE 06:45:00 13° E 06:47:04 10° ESE visible
31 Jan 2.6 17:36:25 10° ESE 17:39:32 22° ENE 17:42:44 10° N visible
31 Jan 2.0 19:10:17 10° S 19:14:12 57° WSW 19:18:15 10° NNW visible
01 Feb 4.7 06:42:36 10° NE 06:44:39 13° E 06:46:42 10° ESE visible
01 Feb 2.6 17:36:04 10° ESE 17:39:12 22° ENE 17:42:23 10° N visible
01 Feb 2.0 19:09:55 10° S 19:13:52 58° W 19:17:55 10° NNW visible
02 Feb 4.8 06:42:17 10° ENE 06:44:19 13° E 06:46:19 10° ESE visible
02 Feb 2.6 17:35:43 10° ESE 17:38:51 22° ENE 17:42:03 10° N visible
02 Feb 1.9 19:09:33 10° S 19:13:30 58° WSW 19:17:34 10° NNW visible
03 Feb 4.8 06:41:57 10° ENE 06:43:57 13° E 06:45:57 10° ESE visible
03 Feb 2.6 17:35:22 10° ESE 17:38:30 22° ENE 17:41:42 10° N visible
03 Feb 1.9 19:09:11 10° S 19:13:09 59° W 19:17:14 10° NNW visible
04 Feb 4.8 06:41:38 10° ENE 06:43:36 13° E 06:45:34 10° ESE visible
04 Feb 2.6 17:35:01 10° ESE 17:38:09 22° ENE 17:41:21 10° N visible
04 Feb 1.9 19:08:50 10° S 19:12:48 60° WSW 19:16:54 10° NNW visible
05 Feb 4.8 06:41:18 10° ENE 06:43:15 13° E 06:45:12 10° ESE visible
05 Feb 2.6 17:34:40 10° ESE 17:37:49 22° ENE 17:41:01 10° N visible
05 Feb 1.9 19:08:28 10° S 19:12:27 60° WSW 19:16:33 10° NNW visible
